Regional Weather Roundup
Issued by NWS Cleveland, OH

Home | Current Version | Previous Version | Text Only | Print | Product List | Glossary Off
Versions: 1 2 3 4 5 6 7 8 9 10 11 12 13 14 15 16 17 18 19 20 21 22 23 24 25 26 27 28 29 30 31 32 33 34 35 36 37 38 39 40 41 42 43 44 45 46 47 48 49 50

000
ASUS41 KCLE 230200
RWRCLE
OHIO REGIONAL WEATHER ROUNDUP
NATIONAL WEATHER SERVICE WILMINGTON, OH
1000 PM EDT FRI MAY 22 2015

NOTE: "FAIR" INDICATES FEW OR NO CLOUDS BELOW 12,000 FEET WITH NO
SIGNIFICANT WEATHER AND/OR OBSTRUCTIONS TO VISIBILITY.

OHZ001>008-015>018-024>027-034-035-043-044-230300-
   NORTHWEST OHIO

CITY           SKY/WX    TMP DP  RH WIND       PRES   REMARKS
DEFIANCE       PTCLDY    56  41  57 CALM      30.26R
FINDLAY        PTCLDY    60  34  37 E8        30.26R
TOLEDO EXPRESS PTCLDY    53  35  50 CALM      30.26R
TOLEDO EXEC    PTCLDY    54  38  54 SE7       30.28R
LIMA           MOCLDY    59  36  42 NE5       30.26R
$$

OHZ009>014-019>023-028>033-038-089-230300-
   NORTHEAST OHIO

CITY           SKY/WX    TMP DP  RH WIND       PRES   REMARKS
CLE-HOPKINS    PTCLDY    50  31  48 SE7       30.30R
CLE-LAKEFRONT  PTCLDY    54  26  34 SE7       30.28R
CUY CO. ARPT   PTCLDY    48  30  49 SE7       30.29R
LORAIN-ELYRIA  PTCLDY    50  34  54 CALM      30.29R
ASHTABULA      CLEAR     41  35  79 CALM      30.29F
AKRON-CANTON   PTCLDY    52  32  46 NE3       30.30R
WOOSTER        NOT AVBL
MANSFIELD      CLEAR     52  35  52 E3        30.29R
YOUNGSTOWN     PTCLDY    45  26  47 E3        30.28R
$$

OHZ042-051>053-060>062-070>072-077>081-230300-
  SOUTHWEST OHIO

CITY           SKY/WX    TMP DP  RH WIND       PRES   REMARKS
CINC-COVINGTON MOCLDY    64  46  52 CALM      30.25R
CINC-LUNKEN    MOCLDY    61  49  64 SE3       30.25R
HAMILTON       PTCLDY    57  49  74 NW3       30.25R
DAYTON         NOT AVBL
WRIGHT-PAT AFB PTCLDY    63  44  50 NE2       30.25R
DAYTON GENERAL PTCLDY    64  44  48 N5        30.24R
WILMINGTON     MOCLDY    62  43  49 CALM      30.25R
$$

OHZ036-037-039>041-045>050-054>059-063>069-073>076-082>088-230300-
  CENTRAL AND SOUTHEAST OHIO

CITY           SKY/WX    TMP DP  RH WIND       PRES   REMARKS
COLUMBUS       MOCLDY    61  37  41 N6        30.25R
OSU AIRPORT    MOCLDY    60  34  37 N6        30.25R
BOLTON FIELD   NOT AVBL
RICKENBACK AFB NOT AVBL
NEWARK         PTCLDY    60  36  40 NE3       30.26R
MARION         PTCLDY    54  35  48 E5        30.28R
LANCASTER      MOCLDY    58  50  75 N5        30.25R
ZANESVILLE     PTCLDY    58  33  39 N5        30.27R
NEW PHILLY     PTCLDY    56  34  43 CALM      30.30R
$$


USA.gov is the U.S. government's official web portal to all federal, state and local government web resources and services.